Location: Unspecified
(51.0000°N, 12.0000°E)
Time: 07:39:49
(UTC+01:00)

ISS - Pass Details

Date: 15 November 2017
Orbit: 402 x 407 km, 51.6° (Epoch: 21 November)

Event Time Altitude Azimuth Distance (km) Brightness Sun altitude
Exits shadow 04:55:21 26° 140° (SE) 830 -1.9 -23.9°
Drops below altitude 10° 04:57:00 10° 127° (SE) 1,452 -0.3 -23.6°
Sets 04:59:06 0° 122° (ESE) 2,309 0.9 -23.3°
